Lexington Weather

Lexington, Massachusetts, USA

72°F
9/22/2021 1:59pm 
  • Lexington Conditions: Overcast
  • Temperature: 72.0°F / 22.2°CColder 2.8°F than last hour.
  • Dew Point: 68.5°FIncreased 0.3°Fsince last hour.
  • Relative Humidity: 89%Increased 9.0% since last hour.
  • Wind: Wind from S S 1 mph, 10-min avg: 4 mph, gust: 11 mph
  • Barometer: 30.10 in Steady
  • Visibility: 10 miles
  • Rain Today: 0.00 in
  •   

Regional Weather Roundup
for Boston / Norton, MA

        
000
ASUS41 KBOX 220504
RWRBOX

REGIONAL WEATHER ROUNDUP
NATIONAL WEATHER SERVICE BOSTON/NORTON MA
100 AM EDT WED SEP 22 2021

NOTE:  "FAIR" INDICATES FEW OR NO CLOUDS BELOW 12,000 FEET WITH NO 
SIGNIFICANT WEATHER AND/OR OBSTRUCTIONS TO VISIBILITY.

MAZALL-220600-
EASTERN MASSACHUSETTS
  
CITY           SKY/WX    TMP DP  RH WIND       PRES   REMARKS
BOSTON         CLOUDY    69  65  86 E3        30.29F                  
BEVERLY        CLOUDY    68  66  93 S7        30.29F                  
LAWRENCE       CLOUDY    67  65  93 SE5       30.31F                  
BEDFORD        CLOUDY    65  63  93 CALM      30.28F                  
BLUE HILL      NOT AVBL                                               
NORWOOD        CLOUDY    70  66  87 VRB3      30.29F                  
MARSHFIELD     CLOUDY    66  66 100 S5        30.29F                  
PLYMOUTH       PTCLDY    67  66  97 SE7       30.29F                  
TAUNTON        CLOUDY    69  66  90 SE6       30.28F                  
NEW BEDFORD    CLOUDY    70  67  90 SE9       30.28F                  
$$

MAZALL-220600-
CAPE COD AND THE ISLANDS
  
CITY           SKY/WX    TMP DP  RH WIND       PRES   REMARKS
FALMOUTH       CLOUDY    68  66  94 SE12      30.31F                  
HYANNIS        CLOUDY    70  66  87 VRB6      30.29F                  
CHATHAM        CLOUDY    66  62  87 SE8       30.32F                  
PROVINCETOWN   CLOUDY    66  64  93 SE8       30.31F                  
NANTUCKET      CLEAR     69  65  86 SE10      30.31F                  
MARTHAS VNYRD  CLEAR     68  66  93 SE12      30.30F                  
$$
 
MAZALL-220600-
CENTRAL AND WESTERN MASSACHUSETTS
  
CITY           SKY/WX    TMP DP  RH WIND       PRES   REMARKS
WORCESTER      LGT RAIN  64  63  96 S6        30.30F FOG              
FITCHBURG      CLOUDY    62  59  90 CALM      30.30F                  
ORANGE         CLOUDY    60  58  92 CALM      30.30F                  
SPRINGFIELD    CLOUDY    62  61  98 CALM      30.25F                  
WESTFIELD      CLOUDY    65  63  93 CALM      30.26F                  
NORTH ADAMS    MOCLDY    61  58  90 VRB7      30.26F                  
PITTSFIELD     CLOUDY    59  58  96 NE3       30.27F                  
$$
 
RIZALL-220600-
RHODE ISLAND
  
CITY           SKY/WX    TMP DP  RH WIND       PRES   REMARKS
PROVIDENCE     CLOUDY    69  68  96 SE3       30.29S                  
NEWPORT        PTCLDY    68  67  96 SE8       30.28F                  
BLOCK ISLAND   CLEAR     69  66  90 SE8       30.28S                  
SMITHFIELD     CLOUDY    67  67 100 CALM      30.30S                  
WESTERLY       MOCLDY    68  68 100 SE5       30.27F                  
$$
 
CTZALL-220600-
CONNECTICUT
  
CITY           SKY/WX    TMP DP  RH WIND       PRES   REMARKS
BRADLEY INTL   LGT RAIN  63  61  93 CALM      30.26F                  
HARTFORD       CLOUDY    67  61  81 CALM      30.25F                  
BRIDGEPORT     CLOUDY    72  69  90 E8        30.24F                  
DANBURY        CLOUDY    69  65  86 CALM      30.26F                  
GROTON         MOCLDY    70  68  93 SE5       30.25F                  
NEW HAVEN      CLOUDY    71  67  87 E6        30.24F                  
CHESTER        CLOUDY    66  66 100 CALM      30.27F                  
MERIDEN        LGT RAIN  65  61  87 NW3       30.25F                  
WILLIMANTIC    LGT RAIN  63  61  93 N3        30.28F                  
OXFORD         CLOUDY    65  65 100 SE6       30.27F                  
$$

MEZ002-015-021-024-NHZ003-005-008-011-012-014-VTZ005-008-220600-
NORTHERN NEW ENGLAND
  
CITY           SKY/WX    TMP DP  RH WIND       PRES   REMARKS
PORTLAND ME    CLOUDY    61  61 100 CALM      30.31F                  
BANGOR ME      CLOUDY    57  57 100 CALM      30.32F                  
CONCORD NH     CLOUDY    59  58  96 CALM      30.30F                  
MANCHESTER NH  CLOUDY    65  60  84 CALM      30.28F                  
NASHUA NH      CLOUDY    62  62 100 NW3       30.30F                  
PORTSMOUTH NH  CLOUDY    63  61  94 SE2       30.31F                  
JAFFREY NH     CLOUDY    59  58  96 CALM      30.31F                  
KEENE NH       CLOUDY    57  55  94 CALM      30.30F                  
BURLINGTON VT  PTCLDY    65  55  70 S8        30.20F                  
MT. WASHINGTON FOG       43  43 100 SW30        N/A  VSB 1/16         
$$

NYZ052-076-220600-
EASTERN NEW YORK
  
CITY           SKY/WX    TMP DP  RH WIND       PRES   REMARKS
ALBANY         MOCLDY    61  60  97 SE8       30.23F                  
NEW YORK CITY  CLOUDY    73  69  87 SE5       30.21F                  
$$
 
ANZALL-220600-
MARINE OBSERVATIONS
  
STATION/POSITION TIME  TEMP    WIND        PRES    VSBY  WAVE
                       AIR SEA DIR/SP/G                  HT/PER
                 (UTC) (F)     (DEG/KT/KT) (MB)    (MI)  (FT/S)
BOSTON BUOY      0440      66  140/  8/ 12 1026.0F
BUZZARDS BAY     0400          130/ 14/ 16 1026.7F
NANTUCKET SOUND  0440   71 72  140/ 14/ 17 1026.0F
MASS BAY-STELLWA 0404   66     160/ 14/ 16 1025.6F  1 7/8  3/ 5
ISLE OF SHOALS   0400   66     180/ 12/ 13 1025.9F
S OF BLOCK IS    0426      70                N/A           4/ 6
$$

......................KEY.........................
  SKY/WX - SKY CONDITION/PRESENT WEATHER
  TMP    - TEMPERATURE IN FAHRENHEIT
  DWPT   - DEWPOINT IN FAHRENHEIT
  RH     - RELATIVE HUMIDITY IN PERCENT
  WIND   - DIRECTION AND SPEED IN MPH
  PRES   - MEAN SEA LEVEL PRESSURE IN INCHES OF HG
  WCI    - WIND CHILL INDEX
  VSB    - VISIBILITY IN MILES
  HX     - HEAT INDEX
  TC     - TEMPERATURE IN CELSIUS
  VRB    - VARIABLE WIND DIRECTION
  N/A    - NOT AVAILABLE
  
      

Other recent Regional Weather Roundups

Wed Sep 22, 1:04pm

Wed Sep 22, 12:05pm

Wed Sep 22, 11:04am

Wed Sep 22, 10:04am

Wed Sep 22, 9:04am

Wed Sep 22, 8:04am

Wed Sep 22, 7:04am

Wed Sep 22, 6:04am

Wed Sep 22, 5:04am

Wed Sep 22, 4:04am

Wed Sep 22, 3:04am

Wed Sep 22, 2:04am

Wed Sep 22, 12:04am

Tue Sep 21, 11:04pm

Tue Sep 21, 10:04pm

Tue Sep 21, 9:04pm

Tue Sep 21, 8:04pm

Tue Sep 21, 7:04pm

Tue Sep 21, 6:04pm

Tue Sep 21, 5:04pm

Tue Sep 21, 4:04pm

Tue Sep 21, 3:04pm

Tue Sep 21, 2:04pm

Tue Sep 21, 1:04pm

Tue Sep 21, 12:04pm

Tue Sep 21, 11:04am

Tue Sep 21, 10:04am

Tue Sep 21, 9:04am

Tue Sep 21, 8:04am

Tue Sep 21, 7:04am

Tue Sep 21, 6:04am

Tue Sep 21, 5:04am

Tue Sep 21, 4:04am

Tue Sep 21, 3:04am

Tue Sep 21, 2:04am

Tue Sep 21, 1:04am

Tue Sep 21, 12:04am

Mon Sep 20, 11:04pm

Mon Sep 20, 10:04pm

Mon Sep 20, 9:04pm

Mon Sep 20, 8:04pm

Mon Sep 20, 7:04pm

Mon Sep 20, 6:04pm

Mon Sep 20, 5:04pm

Mon Sep 20, 4:04pm

Mon Sep 20, 3:04pm

Mon Sep 20, 2:04pm

Mon Sep 20, 1:04pm

Mon Sep 20, 12:04pm

Mon Sep 20, 11:04am

Mon Sep 20, 10:04am

Mon Sep 20, 9:04am

Mon Sep 20, 7:04am

Mon Sep 20, 6:04am

Mon Sep 20, 5:04am

Mon Sep 20, 4:04am

Mon Sep 20, 3:04am

Mon Sep 20, 2:04am

Mon Sep 20, 1:04am

Mon Sep 20, 12:04am

Sun Sep 19, 11:04pm

Sun Sep 19, 10:04pm

Sun Sep 19, 9:04pm

Sun Sep 19, 8:04pm

Sun Sep 19, 7:04pm

Sun Sep 19, 6:04pm

Sun Sep 19, 5:04pm

Sun Sep 19, 4:04pm

Sun Sep 19, 3:04pm

Sun Sep 19, 2:05pm

Sun Sep 19, 1:04pm

Sun Sep 19, 12:04pm

Sun Sep 19, 11:04am

Sun Sep 19, 10:05am

Sun Sep 19, 9:04am

Sun Sep 19, 8:04am

Sun Sep 19, 7:04am

Sun Sep 19, 6:04am

Sun Sep 19, 5:04am

Sun Sep 19, 4:04am

Sun Sep 19, 3:04am

Sun Sep 19, 2:04am

Sun Sep 19, 1:04am

Sun Sep 19, 12:04am

Sat Sep 18, 11:05pm

Sat Sep 18, 10:04pm

Sat Sep 18, 9:04pm

Sat Sep 18, 8:04pm

Sat Sep 18, 7:04pm

Sat Sep 18, 6:04pm

Sat Sep 18, 5:04pm

Sat Sep 18, 4:04pm

Sat Sep 18, 3:04pm

Sat Sep 18, 2:04pm

Sat Sep 18, 1:04pm

Sat Sep 18, 12:04pm

Sat Sep 18, 11:04am

Sat Sep 18, 10:04am

Sat Sep 18, 9:04am

Sat Sep 18, 8:04am

Sat Sep 18, 7:04am

Sat Sep 18, 6:04am

Sat Sep 18, 5:04am

Sat Sep 18, 4:04am

Sat Sep 18, 3:04am

Sat Sep 18, 2:04am

Sat Sep 18, 1:04am

Sat Sep 18, 12:04am

Fri Sep 17, 11:04pm

Fri Sep 17, 10:04pm

Fri Sep 17, 9:04pm

Fri Sep 17, 8:04pm

Fri Sep 17, 7:04pm

Fri Sep 17, 6:04pm

Fri Sep 17, 5:04pm

Fri Sep 17, 4:04pm

Fri Sep 17, 3:04pm

Fri Sep 17, 2:04pm

Fri Sep 17, 1:04pm

Fri Sep 17, 12:05pm

Fri Sep 17, 11:04am

Fri Sep 17, 10:04am

Fri Sep 17, 9:04am

Fri Sep 17, 8:04am

Fri Sep 17, 7:04am

Fri Sep 17, 6:04am

Fri Sep 17, 5:04am

Fri Sep 17, 4:04am

Fri Sep 17, 3:04am

Fri Sep 17, 2:04am

Fri Sep 17, 1:04am

Fri Sep 17, 12:04am

Thu Sep 16, 11:04pm

Thu Sep 16, 10:04pm

Thu Sep 16, 9:04pm

Thu Sep 16, 8:04pm

Thu Sep 16, 7:04pm

Thu Sep 16, 6:04pm

Thu Sep 16, 5:04pm

Thu Sep 16, 4:04pm

Thu Sep 16, 3:04pm

Thu Sep 16, 2:04pm

Thu Sep 16, 1:05pm

Thu Sep 16, 12:04pm

Thu Sep 16, 11:05am

Thu Sep 16, 10:05am

Thu Sep 16, 9:04am

Thu Sep 16, 8:04am

Thu Sep 16, 7:04am

Thu Sep 16, 6:04am

Thu Sep 16, 5:04am

Thu Sep 16, 4:04am

Thu Sep 16, 3:04am

Thu Sep 16, 2:04am

Thu Sep 16, 1:04am

Thu Sep 16, 12:04am

Wed Sep 15, 11:04pm

Wed Sep 15, 10:04pm

Wed Sep 15, 9:04pm

Wed Sep 15, 8:04pm

Wed Sep 15, 7:04pm

Wed Sep 15, 6:04pm

Wed Sep 15, 5:05pm

Wed Sep 15, 4:04pm

Wed Sep 15, 3:04pm

Wed Sep 15, 2:04pm

Meta data:

ID: dd548a8b-95b8-4ed4-b0c9-01463b3a4cdf
Link: https://api.weather.gov/products/dd548a8b-95b8-4ed4-b0c9-01463b3a4cdf